Terminal Aerodrome Forecast
Issued by NWS Wilmington, OH

Current Version | Previous Version | Graphics & Text | Print | Product List | Glossary On
Versions: 1 2 3 4 5 6 7 8 9 10 11 12 13 14 15 16 17 18 19 20 21 22 23 24 25
000
FTUS41 KILN 202335 AAH
TAFCVG
TAF AMD
KCVG 202335Z 2100/2206 12007KT 4SM SHRA VCTS SCT020 OVC050CB
      TEMPO 2100/2102 23015G35KT 2SM +TSRA BR OVC020CB
     FM210400 15007KT P6SM VCSH BKN050
     FM210800 18005KT 4SM SHRA VCTS SCT020 OVC050CB
     FM211300 19007KT 4SM SHRA VCTS OVC015CB
     FM211800 21010KT P6SM OVC022
     FM212100 23009KT P6SM BKN050
     FM220200 27007KT P6SM SCT050 BKN250=

USA.gov is the U.S. government's official web portal to all federal, state and local government web resources and services.